Meteo Giornale » Osservazioni meteo Slovenia » Portoroz

ore: 17:30 - Osservazioni Meteo Portoroz
Lat. 45° 31' N Lon. 13° 34' E Alt. 95 metri s.l.m.

nuvoloso Europe/Ljubljana

24 °C

Nuvoloso

Temp. 24 Ore

19 °C

24 °C

Nord

1.8 Km/h

Dew point 17 °C

Umidità 64 %

Visibilità  10 Km

Il sole sorge alle ore 06:45

Il sole tramonta alle ore 19:14

Data e Ora Cielo e Fenomeni T °C DP °C Um. % Pres. hPa Vis. km Vento km/h
Oggi h: 17:30 nuvoloso Nuvoloso 24 17 64 1010 10 N 1.8
Oggi h: 17:00 nuvoloso_piovaschi Debole Rovescio di Pioggia 24 18 69 1010 10 N 5.5
Oggi h: 16:30 nuvoloso Nuvoloso 24 18 69 1010 10 NO 11.1
Oggi h: 15:30 nuvoloso Nuvoloso 24 18 69 1010 10 N 3.7
Oggi h: 15:00 poco_nuvoloso Poco Nuvoloso 24 18 69 1010 10 N 5.5
Oggi h: 14:30 nuvoloso Nuvoloso 22 19 83 1010 10 N 3.7
Oggi h: 13:30 nuvoloso_piovaschi Debole Rovescio di Pioggia 20 18 88 1011 10 N 7.4
Oggi h: 13:00 molto_nuvoloso Molto Nuvoloso 21 19 88 1011 10 N/NO 16.7
Oggi h: 12:30 molto_nuvoloso Molto Nuvoloso 23 19 78 1011 10 O/SO 13
Oggi h: 12:00 molto_nuvoloso Molto Nuvoloso 23 18 73 1011 10 S/SO 9.3
Oggi h: 11:30 molto_nuvoloso Molto Nuvoloso 23 18 73 1011 10 S/SO 11.1
Oggi h: 10:30 molto_nuvoloso Molto Nuvoloso 22 19 83 1010 10 E/SE 11.1
Oggi h: 10:00 molto_nuvoloso Molto Nuvoloso 20 19 93 1010 10 E/SE 7.4
Oggi h: 09:30 coperto_pioggia Pioggia Debole 19 18 93 1010 10 SE 11.1
Oggi h: 09:00 coperto_pioggia Pioggia Foschia 19 18 93 1010 5 E/SE 11.1
Oggi h: 08:30 coperto_pioggia Pioggia Debole 19 18 93 1010 10 E/SE 9.3
Oggi h: 07:30 nuvoloso_piovaschi Debole Rovescio di Pioggia 19 18 93 1011 10 N 3.7
Oggi h: 07:00 nuvoloso_piovaschi Debole Rovescio di Pioggia 19 18 93 1011 10 N 5.5
Oggi h: 06:30 molto_nuvoloso Molto Nuvoloso 20 18 88 1010 10 N 14.8
Oggi h: 06:00 molto_nuvoloso Molto Nuvoloso 21 20 94 1009 10 S/SE 9.3
Oggi h: 05:30 molto_nuvoloso Molto Nuvoloso 21 19 88 1010 10 E/SE 9.3
Oggi h: 05:00 molto_nuvoloso Molto Nuvoloso 20 19 93 1010 10 E/SE 11.1
Oggi h: 04:30 molto_nuvoloso Molto Nuvoloso 21 19 88 1010 10 E/SE 11.1
Oggi h: 04:00 molto_nuvoloso Molto Nuvoloso 20 19 93 1011 10 E/SE 11.1
Oggi h: 03:30 molto_nuvoloso Molto Nuvoloso 20 19 93 1011 10 E/SE 13
Oggi h: 02:00 coperto_pioggia Pioggia 21 19 88 1013 6 N 1.8
Oggi h: 01:30 molto_nuvoloso Molto Nuvoloso 21 18 82 1012 10 N 1.8
Oggi h: 01:00 molto_nuvoloso Molto Nuvoloso 20 18 88 1013 10 E/SE 7.4
Oggi h: 00:30 sereno Sereno 20 17 82 1013 10 E/SE 7.4
Oggi h: 00:00 molto_nuvoloso Molto Nuvoloso 20 17 82 1013 10 E/SE 7.4
Ieri h: 23:30 molto_nuvoloso Molto Nuvoloso 20 17 82 1013 10 N 5.5
Ieri h: 23:00 molto_nuvoloso Molto Nuvoloso 19 18 93 1014 10 E/SE 13
Ieri h: 22:30 molto_nuvoloso Molto Nuvoloso 19 18 93 1014 10 SE 7.4
Ieri h: 22:00 molto_nuvoloso Molto Nuvoloso 20 18 88 1014 10 E/SE 9.3
Ieri h: 21:30 molto_nuvoloso Molto Nuvoloso 20 19 93 1014 10 N 5.5
Ieri h: 21:00 molto_nuvoloso Molto Nuvoloso 20 19 93 1014 10 N 3.7
Ieri h: 20:30 coperto_pioggia Pioggia Debole 20 19 93 1014 10 E/SE 7.4
Ieri h: 19:30 molto_nuvoloso Molto Nuvoloso 21 19 88 1014 10 N 1.8
Ieri h: 19:00 nuvoloso_piovaschi Rovescio di Pioggia 21 20 94 1014 10 N 1.8